Overview Statistics Trail Chart Weather Telemetry Raw packets
 

This is the latest recevied weather packets stored in our database for station/object KN4AN. If no packets are shown the sender has not sent any weather packets the latest 10 day(s).

<< 97 98 99 100 101 102 103 >>
Time Temp. Humidity Pressure Rain* Wind** Luminosity Snow
1787833292 21.67° C 92% 1016.6 hPa 0 mm - 85 W/m² -
1787832987 21.67° C 93% 1016.6 hPa 0 mm - 86 W/m² -
1787832684 21.11° C 94% 1016.3 hPa 0 mm - 79 W/m² -
1787832382 21.11° C 95% 1016.4 hPa 0 mm - 78 W/m² -
1787832076 20.56° C 95% 1016.3 hPa 0 mm - 68 W/m² -
1787831775 20.56° C 95% 1016.5 hPa 0 mm - 55 W/m² -
1787831475 20.56° C 96% 1016.6 hPa 0 mm - 41 W/m² -
1787831173 20.56° C 96% 1016.7 hPa 0 mm - 35 W/m² -
1787830870 20.56° C 96% 1016.6 hPa 0 mm - 32 W/m² -
1787830569 20° C 96% 1016.5 hPa 0 mm - 31 W/m² -
1787830268 20° C 96% 1016.3 hPa 0 mm - 28 W/m² -
1787829963 20° C 96% 1016.6 hPa 0 mm - 21 W/m² -
1787829663 20° C 96% 1016.5 hPa 0 mm - 16 W/m² -
1787829358 20° C 95% 1016.4 hPa 0 mm - 13 W/m² -
1787829054 20° C 95% 1016.3 hPa 0 mm - 11 W/m² -
1787828749 20° C 95% 1016.3 hPa 0 mm - 9 W/m² -
1787828446 20° C 94% 1016.2 hPa 0 mm - 7 W/m² -
1787828144 20.56° C 94% 1016.1 hPa 0 mm - 5 W/m² -
1787827843 20.56° C 93% 1016.1 hPa 0 mm - 3 W/m² -
1787827539 20.56° C 93% 1016.2 hPa 0 mm - 2 W/m² -
1787827242 20.56° C 93% 1016.2 hPa 0 mm - 1 W/m² -
1787826937 20.56° C 93% 1016.1 hPa 0 mm - 0 W/m² -
1787826633 20.56° C 93% 1015.9 hPa 0 mm - 0 W/m² -
1787826329 21.11° C 93% 1016.1 hPa 0 mm - 0 W/m² -
1787826025 21.11° C 93% 1015.7 hPa 0 mm - 0 W/m² -

* Rain latest hour (hover to see other rain measurements)
** Current wind speed in m/s (hover to see current wind gust speed)